When you browse on this site, cookies collect data to enhance your experience and personalize the content and advertising you see.
Visit our Privacy Policy to learn more. By continuing to use the site, you agree to this use of cookies and data.
  • în România
  • Lista ţărilor
  • Pe 7 zile
  • Temperatura apei
  • Hartă satelitară
  • Meteo pe hartă
  • Widget-uri
  • user-avatar
    Intrare

    Meteo pe oră la Dębno

    Astăzi, 21 Mai, Marţi

    Timp Temperatura Precipitaţii Vânt Presiune Umiditate
    00:00 +15°C° 0 mm 2 m/s 748 mmHg 92%
    01:00 +14°C° 0 mm 2 m/s 748 mmHg 92%
    02:00 +14°C° 0 mm 2 m/s 748 mmHg 93%
    03:00 +13°C° 0 mm 2 m/s 749 mmHg 93%
    04:00 +13°C° 0 mm 2 m/s 749 mmHg 93%
    05:00 +14°C° 0 mm 2 m/s 749 mmHg 90%
    06:00 +16°C° 0 mm 2 m/s 749 mmHg 86%
    07:00 +17°C° 0 mm 2 m/s 749 mmHg 82%
    08:00 +19°C° 0 mm 3 m/s 749 mmHg 73%
    09:00 +21°C° 0 mm 3 m/s 749 mmHg 64%
    10:00 +24°C° 0 mm 3 m/s 749 mmHg 55%
    11:00 +24°C° 0 mm 3 m/s 749 mmHg 51%
    12:00 +25°C° 0 mm 2 m/s 749 mmHg 48%
    13:00 +26°C° 0 mm 2 m/s 749 mmHg 44%
    14:00 +26°C° 0 mm 2 m/s 749 mmHg 46%
    15:00 +26°C° 0 mm 2 m/s 749 mmHg 48%
    16:00 +25°C° 0 mm 2 m/s 749 mmHg 50%
    17:00 +24°C° 0.1 mm 2 m/s 749 mmHg 58%
    18:00 +23°C° 0.1 mm 2 m/s 749 mmHg 66%
    19:00 +21°C° 0.1 mm 2 m/s 749 mmHg 73%
    20:00 +19°C° 0.1 mm 2 m/s 750 mmHg 79%
    21:00 +18°C° 0.1 mm 2 m/s 750 mmHg 84%
    22:00 +17°C° 0.1 mm 2 m/s 750 mmHg 90%
    23:00 +16°C° 0 mm 2 m/s 750 mmHg 90%

    Mâine, 22 Mai, Miercuri

    Timp Temperatura Precipitaţii Vânt Presiune Umiditate
    00:00 +16°C° 0 mm 3 m/s 751 mmHg 91%
    01:00 +14°C° 0 mm 3 m/s 751 mmHg 91%
    02:00 +14°C° 0 mm 3 m/s 751 mmHg 91%
    03:00 +13°C° 0 mm 3 m/s 751 mmHg 91%
    04:00 +13°C° 0 mm 4 m/s 752 mmHg 90%
    05:00 +14°C° 0 mm 4 m/s 752 mmHg 89%
    06:00 +15°C° 0 mm 5 m/s 752 mmHg 87%
    07:00 +16°C° 0 mm 5 m/s 753 mmHg 85%
    08:00 +16°C° 0 mm 5 m/s 753 mmHg 84%
    09:00 +17°C° 0 mm 5 m/s 753 mmHg 84%
    10:00 +17°C° 0 mm 5 m/s 754 mmHg 83%
    11:00 +17°C° 0.1 mm 6 m/s 754 mmHg 83%
    12:00 +16°C° 0.1 mm 6 m/s 754 mmHg 84%
    13:00 +16°C° 0.1 mm 6 m/s 754 mmHg 85%
    14:00 +16°C° 0.1 mm 5 m/s 755 mmHg 84%
    15:00 +15°C° 0.1 mm 5 m/s 755 mmHg 84%
    16:00 +15°C° 0.1 mm 5 m/s 755 mmHg 84%
    17:00 +15°C° 0 mm 5 m/s 755 mmHg 82%
    18:00 +15°C° 0 mm 5 m/s 756 mmHg 81%
    19:00 +15°C° 0 mm 5 m/s 756 mmHg 79%
    20:00 +14°C° 0 mm 5 m/s 757 mmHg 80%
    21:00 +13°C° 0 mm 5 m/s 757 mmHg 82%
    22:00 +12°C° 0 mm 5 m/s 758 mmHg 83%
    23:00 +11°C° 0 mm 4 m/s 758 mmHg 85%

    Poimâine, 23 Mai, Joi

    Timp Temperatura Precipitaţii Vânt Presiune Umiditate
    00:00 +10°C° 0 mm 4 m/s 758 mmHg 87%
    01:00 +8°C° 0 mm 4 m/s 759 mmHg 89%
    02:00 +7°C° 0 mm 4 m/s 759 mmHg 91%
    03:00 +8°C° 0 mm 3 m/s 759 mmHg 93%
    04:00 +7°C° 0 mm 3 m/s 759 mmHg 95%
    05:00 +8°C° 0 mm 3 m/s 759 mmHg 88%
    06:00 +10°C° 0 mm 4 m/s 760 mmHg 82%
    07:00 +11°C° 0 mm 4 m/s 760 mmHg 75%
    08:00 +12°C° 0 mm 4 m/s 760 mmHg 68%
    09:00 +14°C° 0 mm 4 m/s 760 mmHg 60%
    10:00 +15°C° 0 mm 4 m/s 760 mmHg 53%
    11:00 +17°C° 0 mm 4 m/s 760 mmHg 50%
    12:00 +18°C° 0 mm 4 m/s 760 mmHg 47%
    13:00 +19°C° 0 mm 4 m/s 760 mmHg 44%
    14:00 +19°C° 0 mm 4 m/s 759 mmHg 44%
    15:00 +19°C° 0 mm 4 m/s 759 mmHg 45%
    16:00 +19°C° 0 mm 4 m/s 759 mmHg 45%
    17:00 +18°C° 0 mm 3 m/s 759 mmHg 52%
    18:00 +17°C° 0 mm 3 m/s 759 mmHg 58%
    19:00 +16°C° 0 mm 2 m/s 759 mmHg 65%
    20:00 +14°C° 0 mm 2 m/s 759 mmHg 67%
    21:00 +13°C° 0 mm 1 m/s 759 mmHg 70%
    22:00 +11°C° 0 mm 1 m/s 759 mmHg 73%
    23:00 +11°C° 0 mm 1 m/s 759 mmHg 73%

    24 Mai, Vineri

    Timp Temperatura Precipitaţii Vânt Presiune Umiditate
    00:00 +11°C° 0 mm 1 m/s 759 mmHg 72%
    01:00 +9°C° 0 mm 2 m/s 759 mmHg 72%
    02:00 +9°C° 0 mm 2 m/s 758 mmHg 72%
    03:00 +9°C° 0 mm 2 m/s 758 mmHg 72%
    04:00 +9°C° 0 mm 2 m/s 758 mmHg 72%
    05:00 +12°C° 0 mm 2 m/s 758 mmHg 70%
    06:00 +13°C° 0 mm 2 m/s 757 mmHg 68%
    07:00 +14°C° 0 mm 3 m/s 757 mmHg 66%
    08:00 +17°C° 0.1 mm 3 m/s 757 mmHg 62%
    09:00 +18°C° 0.1 mm 3 m/s 757 mmHg 58%
    10:00 +20°C° 0.1 mm 3 m/s 756 mmHg 55%
    11:00 +21°C° 0.1 mm 3 m/s 756 mmHg 52%
    12:00 +21°C° 0.1 mm 3 m/s 755 mmHg 50%
    13:00 +22°C° 0.1 mm 3 m/s 755 mmHg 48%
    14:00 +22°C° 0 mm 3 m/s 754 mmHg 48%
    15:00 +22°C° 0 mm 3 m/s 754 mmHg 49%
    16:00 +22°C° 0 mm 3 m/s 753 mmHg 49%
    17:00 +21°C° 0 mm 2 m/s 753 mmHg 55%
    18:00 +20°C° 0 mm 2 m/s 753 mmHg 60%
    19:00 +20°C° 0 mm 1 m/s 753 mmHg 65%
    20:00 +19°C° 0.1 mm 1 m/s 753 mmHg 70%
    21:00 +16°C° 0.1 mm 1 m/s 753 mmHg 76%
    22:00 +15°C° 0.1 mm 1 m/s 753 mmHg 81%
    23:00 +15°C° 0.1 mm 1 m/s 753 mmHg 83%

    25 Mai, Sâmbătă

    Timp Temperatura Precipitaţii Vânt Presiune Umiditate
    00:00 +14°C° 0.1 mm 1 m/s 752 mmHg 86%
    01:00 +14°C° 0.1 mm 1 m/s 752 mmHg 88%
    02:00 +14°C° 0.1 mm 1 m/s 752 mmHg 90%
    03:00 +14°C° 0.1 mm 1 m/s 752 mmHg 91%
    04:00 +14°C° 0.1 mm 2 m/s 752 mmHg 93%
    05:00 +15°C° 0 mm 2 m/s 752 mmHg 91%
    06:00 +14°C° 0 mm 3 m/s 753 mmHg 89%
    07:00 +16°C° 0 mm 3 m/s 753 mmHg 87%
    08:00 +16°C° 0.3 mm 3 m/s 753 mmHg 86%
    09:00 +16°C° 0.3 mm 3 m/s 753 mmHg 86%
    10:00 +16°C° 0.3 mm 3 m/s 754 mmHg 86%
    11:00 +17°C° 0.2 mm 4 m/s 754 mmHg 81%
    12:00 +17°C° 0.2 mm 4 m/s 754 mmHg 77%
    13:00 +16°C° 0.2 mm 5 m/s 754 mmHg 73%
    14:00 +16°C° 0 mm 5 m/s 754 mmHg 71%
    15:00 +16°C° 0 mm 5 m/s 754 mmHg 69%
    16:00 +15°C° 0 mm 5 m/s 755 mmHg 67%
    17:00 +15°C° 0 mm 4 m/s 755 mmHg 70%
    18:00 +14°C° 0 mm 3 m/s 755 mmHg 74%
    19:00 +13°C° 0 mm 3 m/s 755 mmHg 78%
    20:00 +12°C° 0 mm 3 m/s 755 mmHg 79%
    21:00 +12°C° 0 mm 3 m/s 756 mmHg 80%
    22:00 +12°C° 0 mm 2 m/s 756 mmHg 81%
    23:00 +12°C° 0 mm 2 m/s 756 mmHg 83%

    26 Mai, Duminică

    Timp Temperatura Precipitaţii Vânt Presiune Umiditate
    00:00 +12°C° 0 mm 2 m/s 756 mmHg 84%
    01:00 +10°C° 0 mm 2 m/s 756 mmHg 86%
    02:00 +9°C° 0 mm 2 m/s 756 mmHg 89%
    03:00 +8°C° 0 mm 2 m/s 756 mmHg 93%
    04:00 +7°C° 0 mm 2 m/s 756 mmHg 96%
    05:00 +8°C° 0 mm 2 m/s 756 mmHg 90%
    06:00 +9°C° 0 mm 3 m/s 756 mmHg 84%
    07:00 +11°C° 0 mm 3 m/s 756 mmHg 78%
    08:00 +12°C° 0 mm 3 m/s 756 mmHg 72%
    09:00 +14°C° 0 mm 4 m/s 756 mmHg 66%
    10:00 +15°C° 0 mm 4 m/s 756 mmHg 61%
    11:00 +17°C° 0.1 mm 4 m/s 756 mmHg 60%
    12:00 +18°C° 0.1 mm 4 m/s 755 mmHg 58%
    13:00 +19°C° 0.1 mm 5 m/s 755 mmHg 57%
    14:00 +19°C° 0.2 mm 5 m/s 755 mmHg 57%
    15:00 +19°C° 0.2 mm 5 m/s 755 mmHg 57%
    16:00 +19°C° 0.2 mm 5 m/s 755 mmHg 57%
    17:00 +18°C° 0.1 mm 4 m/s 755 mmHg 62%
    18:00 +17°C° 0.1 mm 3 m/s 754 mmHg 66%
    19:00 +16°C° 0.1 mm 3 m/s 754 mmHg 71%
    20:00 +15°C° 0 mm 2 m/s 755 mmHg 76%
    21:00 +13°C° 0 mm 2 m/s 755 mmHg 81%
    22:00 +12°C° 0 mm 1 m/s 755 mmHg 86%
    23:00 +11°C° 0 mm 1 m/s 755 mmHg 87%
    Arată mai mult